Regional Weather Roundup
Issued by NWS

Home | Current Version | Previous Version | Graphics & Text | Print | Product List | Glossary On
Versions: 1 2 3 4 5 6 7 8 9 10 11 12 13 14 15 16 17 18 19 20 21 22 23 24 25 26 27 28 29 30 31 32 33 34 35 36 37 38 39 40 41 42 43 44 45 46 47 48 49 50
000
ASUS43 KDTX 260110
RWRMI
MICHIGAN HOURLY REGIONAL WEATHER ROUNDUP
NATIONAL WEATHER SERVICE DETROIT/PONTIAC MI
800 PM EST SAT FEB 25 2017

NOTE: "FAIR" INDICATES FEW OR NO CLOUDS BELOW 12,000 FEET WITH NO
SIGNIFICANT WEATHER AND/OR OBSTRUCTION TO VISIBILITY.

MIZ047>049-052>055-059>063-066>070-074>076-081>083-260200-
SOUTHEAST LOWER MICHIGAN

CITY           SKY/WX    TMP DP  RH WIND       PRES   REMARKS
ADRIAN         LGT SNOW  25  20  81 NW18G24   29.92R WCI  11
ALMA           FLURRIES  24  19  80 W14G20    29.88R WCI  12
ANN ARBOR      CLOUDY    25  17  72 W14       29.89R WCI  13
BAD AXE        CLOUDY    27  15  61 W18G25    29.78S WCI  13
CARO           CLOUDY    26  18  74 W13G24    29.82R WCI  14
DETROIT CITY   CLOUDY    27  15  61 W15G24    29.87R WCI  15
DETROIT        LGT SNOW  27  16  63 W20       29.89R WCI  13
FLINT          CLOUDY    24  16  71 W18G28    29.86R WCI  10
GROSSE ILE     FLURRIES  28  17  66 W15G29    29.88R WCI  16
HILLSDALE      FLURRIES  23  18  80 W17G24    29.89R WCI   9
HOWELL         CLOUDY    24  14  65 W15G22    29.88R WCI  11

CITY           SKY/WX    TMP DP  RH WIND       PRES   REMARKS
JACKSON        CLOUDY    22  12  65 W15G26    29.90R WCI   9
LAMBERTVILLE   CLOUDY    28  19  67 W14G22    29.92R WCI  17
LANSING        FLURRIES  22  15  75 W17       29.90R WCI   8
LAPEER         CLOUDY    25  17  70 W13G26    29.83R WCI  14
MASON          CLOUDY    23  15  73 W14       29.90R WCI  11
MONROE         CLOUDY    28  19  68 W17       29.89S WCI  15
MT. CLEMENS    FLURRIES  27  14  59 W22G32    29.84R WCI  12
PONTIAC        FLURRIES  24  14  65 W23G30    29.84R WCI   9
PORT HOPE        N/A     28  14  55 W15G24    29.74R WCI  16
PORT HURON     CLOUDY    27  18  69 W8G21     29.84R WCI  18
TRI CITIES     CLOUDY    26  18  71 W21G28    29.84R WCI  12
MIDLAND        CLOUDY    26  16  64 W15G22    29.83R WCI  14
TROY           CLOUDY    27  13  54 W20G29    29.88R WCI  14
SAGINAW HB     CLOUDY    28  18  64 W21       29.84R WCI  15
$$
MIZ043>046-050>051-056>058-064>065-071>073-077>080-260200-
SOUTHWEST LOWER MICHIGAN

CITY           SKY/WX    TMP DP  RH WIND       PRES   REMARKS
BATTLE CREEK   FLURRIES  22  17  81 W9        29.93R WCI  12
BENTON HARBOR  CLOUDY    26  15  63 W12G20    29.97R WCI  16
BIG RAPIDS     FLURRIES  22  18  81 W15       29.85R WCI   9
COLDWATER      FLURRIES  24  18  78 W9        29.93R WCI  14
FREMONT        FLURRIES  23  17  79 W14       29.90R WCI  10
HOLLAND        FLURRIES  24  16  71 W16G22    29.94R WCI  11
GRAND RAPIDS   FLURRIES  23  17  78 W14       29.91R WCI  11
IONIA          FLURRIES  22  18  83 W12       29.89R WCI  11
KALAMAZOO      LGT SNOW  22  15  75 NW8       29.94R WCI  12
LUDINGTON      CLOUDY    24  16  70 W8G22     29.89R WCI  15
MARSHALL       FLURRIES  22  16  76 W14G20    29.92R WCI   9
MOUNT PLEASANT FLURRIES  25  19  80 W10G17    29.84R WCI  14
MUSKEGON       CLOUDY    25  16  68 W12       29.93R WCI  14
SOUTH HAVEN    CLOUDY    24  16  71 NW15G21   29.96R WCI  11
$$
MIZ016>042-260200-
NORTHERN LOWER MICHIGAN

CITY           SKY/WX    TMP DP  RH WIND       PRES   REMARKS
ALPENA         CLEAR     23  11  60 NW12G24   29.74R WCI  12
BEAVER ISLAND  CLOUDY    23  12  62 W13G20    29.78R WCI  12
BELLAIRE       CLOUDY    26  16  65 W8        29.80R WCI  18
CADILLAC       LGT SNOW  22  18  84 W10       29.78R WCI  11
CHARLEVOIX     MOCLDY    25  14  61 W21       29.81R WCI  11
FRANKFORT      CLOUDY    26  18  71 W14G24    29.84R WCI  15
GAYLORD        LGT SNOW  22  16  78 NW7       29.73R WCI  13
GRAYLING       FLURRIES  24  19  80 W8        29.76R WCI  15
HARBOR SPRINGS MOCLDY    22  11  62 W8        29.76R WCI  12
HOUGHTON LAKE  CLOUDY    23  17  78 W15G21    29.77R WCI  10
MANISTEE       CLOUDY    25  17  72 W18G25    29.86R WCI  11
OSCODA         FLURRIES  27  17  65 W18       29.76R WCI  14
PELLSTON       CLOUDY    22   8  55 W14       29.76R WCI   9
TRAVERSE CITY  FLURRIES  26  16  65 W14       29.81R WCI  14
$$
MIZ007>008-015-260200-
EASTERN UPPER MICHIGAN

CITY           SKY/WX    TMP DP  RH WIND       PRES   REMARKS
KINROSS        FLURRIES  19  14  81 W14       29.70R WCI   6
MACKINAC ISLAN CLOUDY    22  16  77 W18G26    29.73R WCI   7
NEWBERRY       LGT SNOW  19  18  96 SW10      29.71S WCI   8
S. S. MARIE    CLOUDY    24  11  57 NW16G26   29.67R WCI  11
MUNISING         N/A     23  12  62 W9        29.76R WCI  13
$$
MIZ004>006-011>014-085-260200-
CENTRAL UPPER MICHIGAN

CITY           SKY/WX    TMP DP  RH WIND       PRES   REMARKS
MANISTIQUE     CLOUDY    21  12  68 W14G21    29.78R WCI   8
ESCANABA       CLEAR     17   9  70 SW5       29.82  WCI  10
MENOMINEE      CLEAR     17  10  74 SW3       29.87R
SAWYER-GWINN   CLEAR     16  10  79 W7        29.74R WCI   6
$$
MIZ001>003-009>011-084-260200-
WESTERN UPPER MICHIGAN

CITY           SKY/WX    TMP DP  RH WIND       PRES   REMARKS
IRON MOUNTAIN  CLEAR     12   5  73 CALM      29.78R
HOUGHTON       MOCLDY    24  11  57 W18G28    29.71R WCI  10
COPPER HARBOR    N/A     27  13  55 N21G31    29.71R WCI  13
IRONWOOD       MOCLDY    14   6  70 CALM      29.78R
$$

ABBREVIATIONS USED IN REMARKS
   TC - TEMPERATURE IN CELSIUS
  WCI - WIND CHILL INDEX
   HX - HEAT INDEX
  VSB - VISIBILITY





USA.gov is the U.S. government's official web portal to all federal, state and local government web resources and services.